Tracking 27112 objects as of 27-Mar-2023
HD Live streaming from Space Station
objects crossing your sky now

MDASAT-1B

Track MDASAT-1B now!
10-day predictions


NORAD ID: 51050
Int'l Code: 2022-002BU
Perigee: 513.9 km
Apogee: 526.7 km
Inclination: 97.5 °
Period: 94.9 minutes
Semi major axis: 6891 km
RCS: Unknown
Launch date: January 13, 2022
Source: South Africa (SAFR)
Launch site: AIR FORCE EASTERN TEST RANGE (AFETR)
Your satellite tracking list
Your tracking list is empty




NASA's NSSDC Master Catalog

Two Line Element Set (TLE):
1 51050U 22002BU  23085.77546316  .00011948  00000-0  59672-3 0  9999
2 51050  97.4504 152.9831 0009280 168.8416 191.3025 15.17592474 66158
Source of the keplerian elements: AFSPC